This demonstration page uses our WeatherBlox Daily Observations layout. Learn more.

38.88101, -77.10428

Hourly Observations for March 2, 2020

Temp ( °F °C ) Dew Point ( °F °C ) Humidity (%) Winds ( mph kmh ) Pressure ( in mb ) Visibility ( mi km ) Precip ( " mm )
12:52 am 00:52 Partly Cloudy 40 4.4 26 -3.3 58 58 S 8 13 30.11 1020 10 16.0934 0 0
1:52 am 01:52 Mostly Cloudy 40 4.4 24 -4.4 53 53 S 8 13 30.09 1019 10 16.0934 0 0
2:52 am 02:52 Mostly Cloudy 41 5 21 -6.1 45 45 SSW 8 13 30.07 1018 10 16.0934 0 0
3:52 am 03:52 Mostly Cloudy 40 4.4 22 -5.6 49 49 SSW 6 9 30.07 1018 10 16.0934 0 0
4:52 am 04:52 Mostly Cloudy 39 3.9 23 -5 53 53 SSW 7 11 30.06 1018 10 16.0934 0 0
5:52 am 05:52 Mostly Cloudy 41 5 23 -5 49 49 SW 6 9 30.07 1018 10 16.0934 0 0
6:52 am 06:52 Mostly Cloudy 41 5 23 -5 49 49 SSW 6 9 30.06 1018 10 16.0934 0 0
7:52 am 07:52 Cloudy 43 6.1 29 -1.7 58 58 S 10 17 30.05 1018 10 16.0934 0 0
8:52 am 08:52 Partly Cloudy 48 8.9 26 -3.3 42 42 S 12 19 30.04 1017 10 16.0934 0 0
9:52 am 09:52 Mostly Sunny 52 11.1 28 -2.2 40 40 SSW 16 26 30.04 1017 10 16.0934 0 0
10:52 am 10:52 Mostly Sunny 55 12.8 28 -2.2 35 35 SSW 17 28 30.01 1016 10 16.0934 0 0
11:52 am 11:52 Mostly Cloudy 60 15.6 30 -1.1 32 32 SSW 17 28 29.99 1016 10 16.0934 0 0
12:52 pm 12:52 Mostly Cloudy 64 17.8 31 -0.6 29 29 SSW 16 26 29.92 1013 10 16.0934 0 0
1:52 pm 13:52 Cloudy 65 18.3 33 0.6 31 31 SSW 18 30 29.88 1012 10 16.0934 0 0
2:52 pm 14:52 Mostly Cloudy 64 17.8 34 1.1 33 33 SSW 16 26 29.84 1011 10 16.0934 0 0
3:52 pm 15:52 Cloudy 62 16.7 36 2.2 38 38 S 15 24 29.83 1010 10 16.0934 0 0
4:52 pm 16:52 Cloudy 65 18.3 31 -0.6 28 28 SSW 18 30 29.82 1010 10 16.0934 0 0
5:52 pm 17:52 Cloudy with Light Rain 63 17.2 36 2.2 37 37 WSW 16 26 29.83 1010 10 16.0934 0.001 0.001
6:52 pm 18:52 Cloudy 62 16.7 35 1.7 37 37 SW 16 26 29.83 1010 10 16.0934 0.001 0.001
7:52 pm 19:52 Cloudy 62 16.7 36 2.2 38 38 SW 14 22 29.82 1010 10 16.0934 0.001 0.001
8:52 pm 20:52 Cloudy 57 13.9 43 6.1 60 60 SW 5 7 29.82 1010 10 16.0934 0.02 0.508
9:52 pm 21:52 Cloudy with Light Rain 57 13.9 43 6.1 60 60 SW 10 17 29.84 1011 10 16.0934 0.001 0.001
10:52 pm 22:52 Cloudy with Light Rain 52 11.1 47 8.3 83 83 S 7 11 29.85 1011 10 16.0934 0.07 1.778
11:52 pm 23:52 Cloudy with Light Rain 50 10 46 7.8 86 86 S 5 7 29.84 1011 10 16.0934 0.001 0.001

Powered by AerisWeather